Fort Polk, LA

12:17 AM CST on November 20, 2019 (GMT -0600)
Fort Polk

Weather History for KAQV - October, 2019

Change the Weather History Date:

Sunday, October 20, 2019

  Actual Average (KPOE) Record (KPOE)
Temperature  
Mean Temperature 80 °F -  
Max Temperature 90 °F 75 °F 89 °F (2004)
Min Temperature 70 °F 55 °F 37 °F (2011)
Cooling Degree Days 14    
Growing Degree Days 30 (Base 50)    
Moisture  
Dew Point 72 °F    
Average Humidity 86    
Maximum Humidity 93    
Minimum Humidity 52    
Precipitation  
Precipitation 0.09 in - - ()
Sea Level Pressure  
Sea Level Pressure 29.79 in    
Wind  
Wind Speed 4 mph (South)    
Max Wind Speed 8 mph    
Max Gust Speed 22 mph    
Visibility 8 miles    
Events Rain    
Averages and records for this station are not official NWS values.
T = Trace of Precipitation, MM = Missing Value Source: NWS Daily Summary

Daily Weather History Graph

Daily Weather History Graph

Search for Another Location

Airport or City:

Astronomy

Oct. 20, 2019 Rise Set
Actual Time 7:19 AM CDT 6:35 PM CDT
Civil Twilight 6:54 AM CDT 7:00 PM CDT
Nautical Twilight 6:26 AM CDT 7:28 PM CDT
Astronomical Twilight 5:58 AM CDT 7:56 PM CDT
Moon 11:59 PM CDT 1:33 PM CDT
Length of Visible Light 12h 05m
Length of Day
11h 16m
Waning Gibbous, 59% of the Moon is Illuminated
Oct 20
Waning Gibbous
Oct 21
Last Quarter
Oct 27
New
Nov 4
First Quarter
Nov 12
Full

Hourly Weather History & Observations

Time (CDT) Temp. Heat Index Dew Point Humidity Pressure Visibility Wind Dir Wind Speed Gust Speed Precip Events Conditions
12:14 AM 70.0 °F - 68.0 °F 93% 29.77 in 4.0 mi South 3.5 mph - N/A   Mostly Cloudy
12:27 AM 71.1 °F - 69.1 °F 93% 29.77 in 4.0 mi Variable 3.5 mph - N/A   Overcast
12:58 AM 72.0 °F - 70.0 °F 93% 29.76 in 5.0 mi South 3.5 mph - N/A   Overcast
2:48 AM 73.9 °F - 72.0 °F 93% 29.78 in 7.0 mi Variable 3.5 mph - N/A   Overcast
2:58 AM 73.9 °F - 71.1 °F 91% 29.79 in 2.0 mi Variable 5.8 mph - 0.09 in Rain Rain
3:11 AM 72.0 °F - 69.1 °F 91% 29.78 in 2.0 mi Variable 3.5 mph - 0.16 in Rain Light Rain
3:18 AM 72.0 °F - 69.1 °F 91% 29.78 in 10.0 mi Calm Calm - 0.16 in   Overcast
3:26 AM 72.0 °F - 70.0 °F 93% 29.78 in 10.0 mi Calm Calm - 0.16 in   Overcast
3:43 AM 73.0 °F - 70.0 °F 90% 29.78 in 9.0 mi Calm Calm - 0.16 in   Overcast
4:29 AM 73.0 °F - 71.1 °F 93% 29.78 in 5.0 mi Calm Calm - N/A   Overcast
4:58 AM 73.9 °F - 72.0 °F 93% 29.77 in 6.0 mi Variable 4.6 mph - N/A   Overcast
5:17 AM 73.9 °F - 72.0 °F 93% 29.79 in 7.0 mi Variable 3.5 mph - N/A   Overcast
6:58 AM 73.9 °F - 72.0 °F 93% 29.81 in 8.0 mi Variable 5.8 mph - N/A   Overcast
7:36 AM 75.0 °F - 72.0 °F 90% 29.82 in 8.0 mi Variable 4.6 mph - N/A   Overcast
7:58 AM 75.0 °F - 72.0 °F 90% 29.81 in 9.0 mi Variable 4.6 mph - N/A   Mostly Cloudy
8:44 AM 75.0 °F - 72.0 °F 90% 29.82 in 9.0 mi Variable 3.5 mph - N/A   Mostly Cloudy
9:37 AM 78.1 °F - 73.0 °F 84% 29.84 in 10.0 mi Variable 6.9 mph - N/A   Overcast
9:58 AM 78.1 °F - 73.0 °F 84% 29.84 in 10.0 mi Variable 3.5 mph - N/A   Overcast
10:54 AM 80.6 °F 84.6 °F 71.6 °F 74% 29.85 in 10.0 mi Variable 4.6 mph - N/A   Mostly Cloudy
10:58 AM 81.0 °F 85.2 °F 72.0 °F 74% 29.84 in 10.0 mi Variable 5.8 mph - N/A   Mostly Cloudy
11:58 AM 82.9 °F 88.0 °F 72.0 °F 69% 29.83 in 10.0 mi Variable 5.8 mph - N/A   Mostly Cloudy
12:58 PM 87.1 °F 92.8 °F 71.1 °F 59% 29.81 in 10.0 mi Variable 6.9 mph - N/A   Mostly Cloudy
2:58 PM 89.1 °F 93.7 °F 69.1 °F 52% 29.75 in 10.0 mi South 8.1 mph - N/A   Scattered Clouds
4:45 PM 78.1 °F - 73.0 °F 84% 29.77 in 1.8 mi SSE 6.9 mph - 0.07 in Rain Heavy Rain
5:05 PM 77.0 °F - 73.9 °F 90% 29.77 in 10.0 mi Variable 3.5 mph - 0.00 in   Mostly Cloudy
5:58 PM 79.0 °F - 73.9 °F 84% 29.75 in 10.0 mi South 5.8 mph - 0.00 in   Clear
6:58 PM 77.0 °F - 73.0 °F 88% 29.75 in 10.0 mi South 3.5 mph - N/A   Clear
7:58 PM 75.9 °F - 72.0 °F 87% 29.76 in 10.0 mi South 5.8 mph - N/A   Clear
8:58 PM 77.0 °F - 72.0 °F 84% 29.78 in 10.0 mi South 8.1 mph - N/A   Clear
9:58 PM 77.0 °F - 72.0 °F 84% 29.78 in 10.0 mi Variable 4.6 mph - N/A   Mostly Cloudy
10:58 PM 77.0 °F - 73.0 °F 88% 29.77 in 10.0 mi Variable 6.9 mph 21.9 mph N/A   Overcast
11:06 PM 77.0 °F - 73.0 °F 88% 29.77 in 10.0 mi South 6.9 mph - N/A   Overcast
11:58 PM 77.0 °F - 72.0 °F 84% 29.76 in 10.0 mi Variable 6.9 mph 16.1 mph N/A   Overcast